CAPE
1 0 0 0 1 2 2 2 1 1 0 0 0 0 0 0 1 0 0 0 0 0 0 0 0 0 0 0 0 0 0 0 0 0 0 0 0 0 0 0 0 0 0 0 0 0 0
0 0 0 0 1 1 2 1 0 0 0 0 0 0 0 0 0 0 0 0 0 0 0 0 0 0 0 0 0 0 0 0 0 0 0 0 0 0 0 0 0 0 0 0 0 0 0
0 0 0 0 0 1 1 0 0 0 0 0 0 0 0 0 0 0 0 0 0 0 0 0 0 0 0 0 0 0 0 0 0 0 0 0 0 0 0 0 0 0 0 0 0 0 0
0 0 0 0 0 0 0 0 0 0 0 0 0 0 0 0 0 0 0 0 0 0 0 0 0 0 0 0 0 0 0 0 0 0 0 0 0 0 0 0 0 0 0 0 0 0 0
0 0 0 0 0 0 0 0 0 0 0 0 0 0 0 0 0 0 0 0 0 0 0 0 3 22 0 0 0 0 0 0 0 0 0 0 0 0 0 0 0 0 0 0 0 0 0
0 0 0 0 0 0 0 0 0 0 0 0 0 0 0 0 0 0 0 0 0 0 0 0 0 0 0 0 0 0 0 0 0 0 0 0 0 0 0 0 6 0 0 0 0 0 0
0 0 0 0 0 0 0 0 0 0 0 0 0 0 0 0 0 0 0 0 0 0 0 0 0 0 0 0 0 0 0 0 0 0 0 0 0 0 0 0 0 0 0 0 0 0 0
0 0 0 0 0 0 0 0 0 0 0 0 0 0 0 0 0 0 0 12 6 1 0 0 0 0 0 0 0 0 0 0 0 0 0 0 0 0 0 0 0 0 0 0 0 0 0
0 0 0 0 0 0 0 0 0 0 0 0 0 0 0 0 0 6 136 134 108 24 0 0 0 0 0 0 0 0 0 0 0 0 0 0 0 0 0 0 0 0 0 0 0 0 0
0 0 0 0 0 0 0 0 0 0 0 0 0 0 0 0 0 72 28 45 279 42 0 0 0 0 0 0 0 0 0 0 0 0 0 0 0 0 0 0 0 0 0 0 0 0 1
0 0 0 0 0 0 0 0 0 0 0 0 0 0 0 0 0 0 3 205 477 411 0 0 0 0 0 0 0 0 0 0 0 0 0 0 0 0 0 0 0 0 0 0 0 0 0
0 0 0 0 0 0 0 0 0 0 0 0 0 0 0 0 224 57 35 175 232 126 0 0 0 0 0 0 0 0 0 0 0 0 0 0 0 0 0 0 0 0 0 0 0 0 0
0 0 0 0 0 0 0 0 0 0 0 0 0 0 0 15 16 205 172 122 0 13 0 0 0 0 0 0 0 0 0 0 0 0 0 0 0 0 0 0 0 0 0 2 25 1 32
0 0 0 0 0 0 0 0 0 0 0 0 0 0 0 111 100 279 29 0 4 0 0 0 0 0 0 0 0 0 0 0 0 0 0 0 0 0 0 0 0 0 0 1 0 0 4
0 0 0 0 0 0 0 0 0 0 0 0 0 109 79 15 184 86 0 2 0 0 0 0 0 0 0 0 0 0 0 0 0 0 0 0 0 0 0 0 0 0 0 0 0 0 0
0 0 0 0 0 0 0 0 0 0 0 0 0 0 0 3 63 36 67 7 0 0 0 0 0 0 0 0 0 0 0 0 0 0 0 0 0 0 0 0 0 0 0 0 0 0 0
0 0 0 0 0 0 0 0 0 0 0 0 0 0 16 48 2 0 33 0 0 0 0 0 0 0 0 0 0 0 0 0 0 0 0 0 0 0 0 0 0 0 1 0 0 0 0
0 0 0 0 0 0 0 0 0 0 0 0 0 0 0 0 0 88 0 0 0 0 0 0 0 0 0 0 0 0 0 0 0 0 0 0 0 0 0 0 0 0 0 0 0 0 0
0 0 0 0 0 0 0 0 0 0 0 27 0 0 0 2 37 56 0 0 0 0 0 0 0 0 0 0 0 0 0 0 0 0 0 0 0 0 0 0 0 0 0 0 0 0 0
0 0 0 0 0 0 0 0 0 0 0 0 0 0 0 0 0 0 0 0 0 0 0 0 0 0 0 0 0 0 0 0 0 0 0 0 0 0 0 0 0 0 0 0 0 1 1
0 0 0 0 0 0 0 0 0 0 0 0 4 17 0 0 0 0 0 0 0 0 0 0 0 0 0 0 0 0 0 0 0 0 0 0 0 0 0 0 0 0 0 0 0 0 1
0 0 0 0 0 0 0 0 0 0 0 12 0 0 0 0 0 0 0 0 0 0 0 0 0 0 0 0 0 0 0 0 0 0 0 0 0 0 0 0 0 0 0 0 0 0 0
0 0 0 0 0 0 0 0 0 0 0 18 0 0 1 0 0 0 0 0 0 0 0 0 0 0 0 0 0 0 0 0 0 0 0 0 0 0 0 0 0 0 0 0 1 4 4
0 0 0 0 0 0 0 0 0 0 0 49 7 1 0 0 0 0 0 0 0 0 0 0 0 0 0 0 0 0 0 0 0 0 0 0 0 0 0 0 0 0 0 0 0 0 1
0 0 0 0 0 0 0 0 0 0 0 13 0 20 0 0 0 0 0 0 0 0 0 0 0 0 0 0 0 0 0 0 0 0 0 0 0 0 0 0 0 0 0 0 0 0 0
0 0 0 0 0 0 0 0 0 0 0 10 0 0 19 0 0 0 0 0 0 0 0 0 0 0 0 0 0 0 0 0 0 0 0 0 0 0 0 0 0 2 3 0 0 0 2
0 0 0 0 0 0 0 0 0 0 0 55 0 0 23 0 0 0 0 0 0 0 0 0 0 0 0 0 0 0 0 0 0 0 0 0 0 0 0 0 0 1 0 0 0 9 7
0 0 0 0 0 0 0 0 0 0 0 23 8 0 40 2 0 0 0 0 0 0 0 0 0 0 0 0 0 0 0 0 0 0 0 0 0 0 1 0 0 0 4 7 16 9 4
0 0 0 0 0 0 0 0 0 0 0 0 83 0 0 41 2 0 0 0 0 0 0 0 0 0 0 0 0 0 0 0 0 0 0 0 0 1 5 0 9 11 13 13 5 5 5
CIN
-0 -0 -0 -0 -0 -0 -0 -0 -0 -0 -0 -0 -0 -0 -0 -0 -0 -0 -0 -0 -0 -0 -0 -0 -0 -0 -0 -0 -0 -0 -0 -0 -0 -0 -0 -0 -0 -0 -0 -0 -0 -0 -0 -0 -0 -0 -0
-0 -0 -0 -0 -0 -0 -0 -0 -0 -0 -0 -0 -0 -0 -0 -0 -0 -0 -0 -0 -0 -0 -0 -0 -0 -0 -0 -0 -0 -0 -0 -0 -0 -0 -0 -0 -0 -0 -0 -0 -0 -0 -0 -0 -0 -0 -0
-0 -0 -0 -0 -0 -0 -0 -0 -0 -0 -0 -0 -0 -0 -0 -0 -0 -0 -0 -0 -0 -0 -0 -0 -0 -0 -1 -0 -0 -0 -0 -0 -0 -0 -0 -0 -0 -0 -0 -0 -0 -0 -0 -0 -0 -0 -0
-0 -0 -0 -0 -0 -0 -0 -0 -0 -0 -0 -0 -0 -0 -0 -0 -0 -0 -0 -0 -0 -0 -0 -0 -0 -0 -0 -0 -0 -0 -0 -0 -0 -0 -0 -0 -0 -0 -0 -0 -0 -0 -0 -0 -0 -0 -0
-0 -0 -0 -0 -0 -0 -0 -0 -0 -0 -0 -0 -0 -0 -0 -0 -0 -0 -0 -0 -0 -0 -0 -0 -32 -52 -0 -0 -0 -0 -0 -0 -0 -0 -0 -0 -0 -0 -0 -0 -0 -0 -0 -0 -0 -0 -0
-0 -0 -0 -0 -0 -0 -0 -0 -0 -0 -0 -0 -0 -0 -0 -0 -0 -0 -0 -0 -0 -0 -0 -0 -0 -0 -0 -0 -0 -0 -0 -0 -0 -0 -0 -0 -0 -0 -0 -0 -5 -0 -0 -0 -0 -0 -0
-0 -0 -0 -0 -0 -0 -0 -0 -0 -0 -0 -0 -0 -0 -0 -0 -0 -0 -0 -0 -0 -0 -0 -0 -0 -0 -0 -0 -0 -0 -0 -0 -0 -0 -0 -0 -0 -0 -0 -0 -0 -0 -0 -0 -0 -0 -0
-0 -0 -0 -0 -0 -0 -0 -0 -0 -0 -0 -0 -0 -0 -0 -0 -0 -0 -0 -180 -187 -29 -0 -0 -0 -0 -0 -0 -0 -0 -0 -0 -0 -0 -0 -0 -0 -0 -0 -0 -0 -0 -0 -0 -0 -0 -0
-0 -0 -0 -0 -0 -0 -0 -0 -0 -0 -0 -0 -0 -0 -0 -0 -0 -76 -130 -170 -191 -127 -0 -0 -0 -0 -0 -0 -0 -0 -0 -0 -0 -0 -0 -0 -0 -0 -0 -0 -0 -0 -0 -0 -0 -0 -0
-0 -0 -0 -0 -0 -0 -0 -0 -0 -0 -0 -0 -0 -0 -0 -0 -0 -191 -208 -280 -178 -142 -0 -0 -0 -0 -0 -0 -0 -0 -0 -0 -0 -0 -0 -0 -0 -0 -0 -0 -0 -0 -0 -0 -0 -0 -2
-0 -0 -0 -0 -0 -0 -0 -0 -0 -0 -0 -0 -0 -0 -0 -0 -0 -0 -299 -231 -149 -125 -1 -0 -0 -0 -0 -0 -0 -0 -0 -0 -0 -0 -0 -0 -0 -0 -0 -0 -0 -0 -0 -0 -0 -0 -0
-0 -0 -0 -0 -0 -0 -0 -0 -0 -0 -0 -0 -0 -0 -0 -0 -180 -317 -356 -266 -165 -101 -0 -0 -0 -0 -0 -0 -0 -0 -0 -0 -0 -0 -0 -0 -0 -0 -0 -0 -0 -0 -0 -0 -0 -0 -0
-0 -0 -0 -0 -0 -0 -0 -0 -0 -0 -0 -0 -0 -0 -0 -195 -180 -258 -271 -179 -0 -49 -0 -0 -0 -0 -0 -0 -0 -0 -0 -0 -0 -0 -0 -0 -0 -0 -0 -0 -0 -0 -0 -3 -14 -1 -2
-0 -0 -0 -0 -0 -0 -0 -0 -0 -0 -0 -0 -0 -0 -0 -304 -294 -239 -288 -0 -134 -0 -0 -0 -0 -0 -0 -0 -0 -0 -0 -0 -0 -0 -0 -0 -0 -0 -0 -0 -0 -0 -0 -16 -0 -0 -1
-0 -0 -0 -0 -0 -0 -0 -0 -0 -0 -0 -0 -0 -203 -257 -428 -297 -297 -0 -22 -0 -0 -0 -0 -0 -0 -0 -0 -0 -0 -0 -0 -0 -0 -0 -0 -0 -0 -0 -0 -0 -0 -0 -0 -0 -0 -0
-0 -0 -0 -0 -0 -0 -0 -0 -0 -0 -0 -0 -0 -0 -0 -455 -366 -207 -143 -94 -0 -0 -0 -0 -0 -0 -0 -0 -0 -0 -0 -0 -0 -0 -0 -0 -0 -0 -0 -0 -0 -0 -0 -0 -0 -0 -0
-0 -0 -0 -0 -0 -0 -0 -0 -0 -0 -0 -0 -0 -0 -57 -350 -41 -0 -159 -0 -0 -0 -0 -0 -0 -0 -0 -0 -0 -0 -0 -0 -0 -0 -0 -0 -0 -0 -0 -0 -0 -0 -1 -0 -0 -0 -0
-0 -0 -0 -0 -0 -0 -0 -0 -0 -0 -0 -0 -0 -0 -0 -0 -0 -119 -2 -0 -0 -0 -0 -0 -0 -0 -0 -0 -0 -0 -0 -0 -0 -0 -0 -0 -0 -0 -0 -0 -0 -0 -0 -0 -0 -0 -0
-0 -0 -0 -0 -0 -0 -0 -0 -0 -0 -0 -130 -0 -0 -0 -215 -111 -157 -0 -0 -0 -0 -0 -0 -0 -0 -0 -0 -0 -0 -0 -0 -0 -0 -0 -0 -0 -0 -0 -0 -0 -0 -0 -0 -0 -0 -0
-0 -0 -0 -0 -0 -0 -0 -0 -0 -0 -0 -0 -0 -0 -0 -0 -0 -0 -0 -0 -0 -0 -0 -0 -0 -0 -0 -0 -0 -0 -0 -0 -0 -0 -0 -0 -0 -0 -0 -0 -0 -0 -0 -0 -0 -1 -1
-0 -0 -0 -0 -0 -0 -0 -0 -0 -0 -0 -0 -33 -80 -0 -0 -0 -0 -0 -0 -0 -0 -0 -0 -0 -0 -0 -0 -0 -0 -0 -0 -0 -0 -0 -0 -0 -0 -0 -0 -0 -0 -0 -0 -0 -0 -2
-0 -0 -0 -0 -0 -0 -0 -0 -0 -0 -0 -47 -0 -0 -0 -0 -0 -0 -0 -0 -0 -0 -0 -0 -0 -0 -0 -0 -0 -0 -0 -0 -0 -0 -0 -0 -0 -0 -0 -0 -0 -0 -0 -0 -0 -0 -1
-0 -0 -0 -0 -0 -0 -0 -0 -0 -0 -0 -46 -0 -0 -3 -0 -0 -0 -0 -0 -0 -0 -0 -0 -0 -0 -0 -0 -0 -0 -0 -0 -0 -0 -0 -0 -0 -0 -0 -0 -0 -0 -0 -0 -1 -2 -2
-0 -0 -0 -0 -0 -0 -0 -0 -0 -0 -0 -84 -44 -13 -0 -0 -0 -0 -0 -0 -0 -0 -0 -0 -0 -0 -0 -0 -0 -0 -0 -0 -0 -0 -0 -0 -0 -0 -0 -0 -0 -0 -0 -0 -0 -0 -3
-0 -0 -0 -0 -0 -0 -0 -0 -0 -0 -0 -184 -0 -84 -0 -0 -0 -0 -0 -0 -0 -0 -0 -0 -0 -0 -0 -0 -0 -0 -0 -0 -0 -0 -0 -0 -0 -0 -0 -0 -0 -0 -0 -0 -0 -0 -0
-0 -0 -0 -0 -0 -0 -0 -0 -0 -0 -0 -186 -0 -0 -92 -0 -0 -0 -0 -0 -0 -0 -0 -0 -0 -0 -0 -0 -0 -0 -0 -0 -0 -0 -0 -0 -0 -0 -0 -0 -0 -1 -4 -0 -0 -0 -3
-0 -0 -0 -0 -0 -0 -0 -0 -0 -0 -0 -154 -0 -0 -93 -0 -0 -0 -0 -0 -0 -0 -0 -0 -0 -0 -0 -0 -0 -0 -0 -0 -0 -0 -0 -0 -0 -0 -0 -0 -0 -1 -0 -0 -0 -3 -2
-0 -0 -0 -0 -0 -0 -0 -0 -0 -0 -0 -193 -48 -0 -114 -28 -0 -0 -0 -0 -0 -0 -0 -0 -0 -0 -0 -0 -0 -0 -0 -0 -0 -0 -0 -0 -0 -0 -0 -0 -0 -0 -2 -2 -1 -1 -4
-0 -0 -0 -0 -0 -0 -0 -0 -0 -0 -0 -0 -74 -0 -0 -48 -80 -0 -0 -0 -0 -0 -0 -0 -0 -0 -0 -0 -0 -0 -0 -0 -0 -0 -0 -0 -0 -1 -3 -0 -3 -11 -3 -1 -1 -1 -1
Wind_Speed
27 29 30 30 31 30 29 27 25 17 27 27 27 27 26 26 26 26 25 25 24 23 22 21 20 20 19 18 8 14 14 15 19 20 21 17 10 8 9 8 8 7 12 13 16 19 18
26 27 29 29 29 28 26 25 24 23 23 24 24 25 24 26 26 25 25 24 24 23 22 21 22 21 23 18 16 16 15 15 12 17 16 17 16 15 10 9 16 16 16 18 19 19 18
25 26 27 27 27 26 24 23 11 21 21 22 23 24 25 26 26 26 25 24 24 22 21 21 22 23 22 17 17 18 18 15 14 14 16 16 16 19 16 17 16 20 21 18 20 21 19
24 25 25 25 25 23 22 20 18 17 18 19 20 22 25 26 27 27 26 24 23 22 21 22 23 23 18 19 16 18 17 19 16 14 12 12 16 15 18 12 20 24 23 24 12 8 12
23 23 23 23 22 20 19 17 15 15 16 18 20 22 25 26 27 26 25 23 22 21 21 21 22 22 20 17 20 16 18 19 18 18 14 14 16 17 19 24 24 23 22 21 9 15 17
22 21 21 20 19 18 17 15 14 12 14 17 20 23 24 26 27 26 24 22 20 20 21 21 21 21 19 18 17 17 17 19 21 22 20 19 20 21 22 23 21 5 22 11 14 11 18
21 20 20 19 17 17 15 14 13 13 15 17 20 22 24 25 26 26 24 21 23 23 23 16 21 14 17 15 20 15 17 20 23 22 22 19 21 15 15 18 18 17 20 21 15 17 20
19 20 20 18 17 16 14 14 14 15 16 18 19 21 24 25 25 25 23 20 16 17 16 16 15 12 14 17 18 14 17 21 22 21 19 21 12 14 15 16 17 18 20 16 17 17 18
20 19 19 18 16 15 14 14 16 17 18 18 19 20 24 26 24 23 21 17 18 16 17 15 15 13 14 14 11 12 14 18 18 20 16 13 11 13 15 16 19 17 20 19 22 19 17
20 19 19 17 16 15 15 16 17 18 19 19 19 19 22 23 24 24 21 19 18 16 19 17 17 14 17 16 11 12 13 14 12 10 10 12 13 16 17 17 21 21 17 22 21 17 13
20 19 18 17 16 15 16 17 18 20 20 20 19 19 25 25 21 25 20 19 19 16 17 16 12 14 9 13 12 16 14 13 11 10 14 13 15 17 18 20 21 19 23 20 18 16 20
21 19 18 17 16 16 16 17 19 21 21 22 21 19 24 23 20 19 19 19 20 16 14 10 10 11 14 14 15 14 15 14 14 13 14 13 14 18 21 20 19 21 20 18 17 16 17
21 20 18 17 15 15 15 17 19 21 22 22 21 21 22 19 22 19 19 23 18 17 11 9 9 11 12 13 15 15 14 14 13 12 14 13 17 16 20 19 15 22 20 20 19 17 18
20 20 18 17 15 15 15 16 18 20 22 23 22 21 17 16 17 19 23 25 18 14 10 11 9 10 12 12 13 13 13 14 16 17 13 12 13 18 21 19 20 20 20 19 20 20 20
20 19 17 16 14 14 14 14 16 19 21 21 20 20 19 17 18 20 25 25 15 11 9 11 11 10 11 12 12 12 13 14 15 16 15 15 16 16 19 20 20 20 20 19 19 19 21
20 19 17 16 14 14 13 13 15 18 21 21 21 22 19 19 18 20 25 22 17 12 11 14 9 19 14 10 5 15 13 13 15 15 16 17 15 17 18 16 19 21 19 19 20 23 24
20 19 17 16 14 13 13 13 14 16 19 20 20 22 17 17 16 14 2 12 9 8 9 15 18 16 11 15 16 4 12 13 13 16 15 10 15 17 16 18 22 19 18 21 21 20 22
20 18 17 16 14 13 12 12 12 14 15 17 18 20 15 14 10 11 7 7 9 6 8 10 12 13 15 12 11 11 15 11 13 14 17 20 17 17 19 18 18 19 20 20 20 20 19
20 18 17 16 14 13 12 12 12 14 16 16 18 13 13 15 13 11 8 7 8 6 9 12 14 13 10 7 10 10 12 12 14 16 17 19 17 19 17 18 18 19 18 17 18 18 17
21 18 16 15 14 13 13 13 14 15 18 17 15 15 13 17 17 6 3 4 7 11 10 11 9 7 8 8 10 10 11 13 14 16 17 16 17 18 20 22 23 22 18 13 11 18 19
21 18 16 15 14 14 14 14 14 16 17 17 17 17 15 15 15 7 3 5 3 12 13 9 9 8 7 8 10 10 11 12 13 14 15 17 17 20 19 19 20 20 17 13 12 12 14
21 18 17 15 14 14 14 15 14 15 16 18 18 16 15 14 10 6 9 7 4 12 8 9 6 4 6 7 9 8 10 11 13 13 15 18 19 22 21 21 23 23 17 13 12 14 15
21 19 17 16 15 15 15 15 15 15 16 17 16 15 15 16 9 9 10 5 8 6 14 11 2 4 6 9 11 13 13 14 14 14 15 18 20 24 25 28 31 26 21 19 17 17 16
22 19 17 16 16 15 15 16 16 16 15 16 16 15 16 16 10 11 10 6 5 10 7 4 6 5 9 8 10 14 14 15 14 16 16 17 20 23 27 31 32 26 20 18 15 18 17
24 21 18 17 16 16 16 16 16 16 16 15 14 16 15 15 12 12 9 4 7 6 3 5 12 9 6 12 13 13 13 15 15 17 17 16 19 24 26 30 28 25 22 21 23 21 23
25 22 19 17 17 16 16 16 16 16 16 15 15 16 15 12 17 11 9 7 7 8 9 12 11 11 11 13 13 13 14 15 14 15 18 18 18 21 26 31 33 25 24 20 20 21 20
24 24 21 18 17 17 17 17 17 16 16 17 16 17 18 15 15 13 13 11 13 11 12 11 11 13 15 14 13 13 14 15 15 16 17 20 21 23 23 29 25 23 21 19 23 24 25
24 24 23 21 19 18 18 18 18 18 18 18 17 17 19 17 15 17 16 14 15 15 13 11 12 16 14 14 13 14 14 13 15 17 18 20 23 25 24 29 34 18 19 23 27 29 28
24 24 24 23 21 20 19 18 18 18 18 18 19 16 17 18 16 16 17 18 18 19 16 11 18 13 10 14 14 14 16 16 17 21 16 23 19 23 21 25 25 20 23 21 22 27 30
Wind_Direction
293 294 294 291 289 281 278 266 252 220 249 256 251 240 237 227 218 223 221 217 219 221 220 221 220 215 209 216 267 221 221 212 199 209 217 236 274 298 348 353 308 333 250 247 224 210 218
293 296 294 290 291 285 275 267 270 256 235 243 229 232 214 205 212 215 211 211 209 207 211 211 207 208 194 217 212 214 219 213 233 219 236 238 244 242 261 252 233 222 218 210 209 212 222
291 293 289 294 292 283 274 270 192 250 243 219 215 212 193 202 201 198 198 197 197 202 204 202 200 196 195 206 217 218 216 225 226 228 225 226 222 211 216 218 223 209 199 214 213 214 232
288 289 288 297 289 286 282 265 247 215 224 227 224 206 191 188 186 187 187 188 191 193 194 195 192 189 190 202 216 205 213 201 211 214 215 223 217 229 221 256 210 198 208 194 287 65 324
283 284 288 286 282 281 268 264 259 248 223 210 199 191 185 183 181 182 184 186 188 191 191 190 188 186 179 203 189 215 207 195 195 191 209 211 213 220 213 192 192 200 190 208 353 295 288
277 284 278 271 280 274 271 263 250 248 221 201 190 184 182 180 180 181 181 183 187 187 185 188 197 183 188 192 207 209 208 200 181 178 187 204 204 199 203 207 218 254 219 167 264 341 263
276 274 270 275 273 275 264 258 241 228 209 195 187 184 183 182 182 180 178 178 171 172 177 193 181 197 183 194 177 208 207 196 180 174 204 230 220 255 277 267 269 275 258 263 315 317 295
274 266 267 277 272 276 270 247 233 213 201 194 191 190 187 185 184 184 189 188 193 186 181 182 182 194 195 191 182 211 209 191 180 190 194 214 288 294 304 295 291 290 283 309 320 320 309
265 262 262 266 275 274 261 241 221 210 204 199 196 193 188 185 186 189 190 193 191 194 183 190 191 197 196 192 229 249 229 208 218 221 232 295 333 327 313 322 302 315 300 311 302 318 320
258 258 259 263 271 268 251 237 222 213 207 204 201 198 193 191 191 190 192 197 199 205 188 193 193 211 191 194 286 277 248 257 287 343 350 335 323 312 312 324 311 308 331 316 316 328 341
251 253 258 259 264 260 249 237 224 216 211 209 207 207 197 196 196 192 201 204 207 205 212 218 257 201 311 299 338 344 317 40 7 13 324 333 332 325 323 321 321 323 318 323 325 325 316
246 249 253 253 261 255 249 239 226 218 215 213 212 211 200 205 208 208 210 210 202 221 249 309 341 14 7 4 353 7 12 13 346 6 359 358 352 335 325 326 327 325 326 327 329 327 319
243 243 250 251 260 254 251 240 228 221 218 217 215 214 212 218 209 219 217 183 223 256 315 352 7 357 2 9 3 15 9 347 330 356 347 19 352 6 346 335 350 325 322 318 320 320 320
240 242 249 251 256 253 252 242 230 223 220 217 217 218 226 228 229 227 204 191 253 306 344 360 33 34 357 8 339 357 1 354 337 295 28 27 22 360 354 357 328 336 331 328 318 320 322
238 239 248 250 254 255 254 247 234 224 219 217 220 224 228 237 239 233 180 212 289 106 58 77 79 50 350 328 328 2 349 343 334 327 351 13 24 29 13 360 355 346 339 341 335 334 325
235 236 245 248 253 255 254 250 237 226 219 217 221 223 234 243 247 239 194 246 278 318 59 109 40 236 271 332 90 117 30 303 19 329 321 16 35 22 21 32 16 350 360 347 343 325 323
234 236 243 246 252 256 255 254 242 228 220 222 224 227 246 251 251 262 346 309 352 5 26 200 243 251 285 247 221 225 25 23 287 348 319 332 79 42 55 28 1 9 4 350 341 338 332
234 236 241 247 253 257 259 257 248 229 223 226 232 238 248 248 257 278 326 358 4 11 0 354 302 268 252 273 290 298 76 302 309 272 52 14 49 46 28 29 20 12 4 358 349 346 341
232 237 241 249 253 258 262 261 254 236 229 236 241 254 254 248 271 281 317 346 353 338 323 290 277 282 303 352 331 17 24 357 344 359 15 13 33 24 30 29 24 11 11 8 358 351 338
229 236 242 250 256 259 264 265 259 248 242 248 248 247 253 255 279 291 329 343 323 303 302 299 324 4 36 25 2 47 34 28 16 7 16 34 22 20 11 3 360 353 354 359 352 340 339
229 235 242 250 259 260 265 268 268 258 248 251 256 254 258 260 272 295 322 315 326 280 281 299 311 331 45 20 43 40 40 37 24 26 29 19 15 8 7 4 0 354 350 347 337 332 327
228 234 242 250 258 262 266 270 274 269 254 254 254 261 264 277 278 286 297 291 277 277 286 291 310 10 11 24 10 37 28 19 13 27 18 13 5 3 5 8 3 353 345 337 336 351 342
229 234 242 249 257 262 267 273 277 279 263 261 268 271 266 269 272 276 282 284 277 288 285 293 359 9 6 357 352 348 351 2 10 11 9 1 2 357 356 357 352 356 10 10 3 354 353
228 234 241 249 255 265 269 274 280 282 276 271 269 269 267 263 269 271 277 282 273 284 293 314 316 329 324 350 358 350 356 359 6 4 6 2 359 358 351 353 353 1 358 351 350 349 349
228 234 242 249 255 263 269 274 279 283 278 274 272 271 271 266 267 272 270 258 285 295 291 304 299 311 331 320 330 338 347 348 357 357 1 2 360 353 350 348 345 357 10 3 353 343 343
228 234 241 249 256 263 268 275 279 282 277 272 274 272 275 268 261 266 262 255 259 277 287 288 296 297 309 318 325 328 331 342 350 356 359 358 359 351 348 345 345 358 2 0 356 338 351
230 234 240 249 255 262 267 273 277 279 278 271 270 271 267 268 268 262 266 256 273 273 282 281 287 294 301 310 318 323 328 338 339 343 345 348 347 341 342 339 343 349 356 360 344 341 340
233 236 241 248 255 261 267 272 275 276 276 271 268 274 265 268 268 265 269 268 269 269 277 282 289 292 299 305 314 320 324 332 335 340 342 341 340 339 343 340 337 360 352 340 339 336 338
236 239 242 247 253 260 265 271 275 275 275 271 265 275 275 268 272 271 272 272 270 272 277 278 290 303 304 309 310 319 319 325 327 327 339 334 334 337 338 337 337 339 331 334 337 338 338